Showing default

ZHANGHENG 1, 43194

Orbit data source: Space-Track

ZHANGHENG 1, 43194 is a payload satellite owned by CAS (CN) in SSO that was launched on Fri, 02 Feb 2018 UTC via a CHANG ZHENG 2D launch vehicle from the Jiuquan Satellite Launch Center, China (JSC). Payload-class satellites include a variety of spacecraft equipped with specific instruments for various scientific and technological missions. These include communications satellites like Starlink; space stations such as the ISS; scientific satellites like the Hubble; Earth observation satellites from companies like Planet Labs, Umbra, and HawkEye 360; GPS; miniature CubeSats for education and research; and military/defense satellites.

Loading next visibility...
Identifier
43194, 2018-015C
Orbit
SSO
Country
Flag of CNCN / PRC
Related business
Manufacturer
DFH
Mission
Operational Civil Science
Bus & Motor
CAST-2000, AOCS
Mass
730 kg wet, ~700 kg dry
Launch date (UTC)
2018-02-02 (8 years ago)
Launch vehicle
CHANG ZHENG 2D
Launch site
Jiuquan Satellite Launch Center, China (JSC)
Object type
Payload
Rocket body
Debris
Shape & HBR
Box + 2 Pan, 2.0 m
Radar Cross Section
2.715 m², Large (>1 m²)

Expand to show TLE details & history
Last TLE update: 22 hours ago

TLE from 22 hours ago
0 ZHANGHENG 1
1 43194U 18015C   26172.54727091  .00005757  00000-0  26306-3 0  9993
2 43194  97.6879 338.2914 0017139 250.0785 109.8603 15.20857536465304
Epoch: 2026-06-21T13:08Z
TLE epoch observation values (Epoch: 2026-06-21T13:08:04.206Z)
Latitude
-0.00009°
Longitude
-128.47209°
Altitude
510.361 km
Speed
7.606 km/s
True Right ascension
22h 33m 09s
True Declination
0° 00' 00"
Sunlit
Object was in daylight at epoch
Visualization orbit readout
Latitude
Unknown
Longitude
Unknown
Altitude
Unknown
Speed
Unknown
Apparent Right ascension
Unknown
Apparent Declination
Unknown
Sunlit
N/A
Visualization observer readout
Local Sidereal Time
21:57:11
Azimuth
Unknown
Elevation
Unknown
Doppler factor
Unknown
Orbital elements
Apogee altitude
512.018 km
Perigee altitude
488.441 km
Semi-major axis
6,878.367 km
Eccentricity
0.00171
Inclination
97.6879°
RAAN
338.2914°
Arg. of periapsis
250.0785°
True anomaly
110.04488°
Mean anomaly
109.8603°
Eccentric anomaly
109.9526°
Mean motion
3.80465 °/min
Orbital period
94.62 mins
BSTAR
0.00026306
Loading maneuver chart data...
Computing Atmospheric mass density...
Loading historical data...
Loading historical data...
Loading historical data...
Loading historical data...
Loading historical data...
Loading historical data...
Loading historical data...

Documentation

Showing up to 5 results
|